Location: 433rd Scouts Home(Lloyd Manor Park, Etobicoke )
(43.6722°N, 79.5542°W)
Time: 06:47:34
(UTC-04:00)

Envisat - Pass Details

Date: 22 September 2021
Orbit: 764 x 766 km, 98.2° (Epoch: 20 October)

Event Time Altitude Azimuth Distance (km) Brightness Sun altitude
Rises 05:10:37 0° 31° (NNE) 3,240 7.1 -21.1°
Reaches altitude 10° 05:13:56 10° 54° (NE) 2,307 6.6 -20.6°
Maximum altitude 05:16:52 15° 90° (E) 1,958 6.0 -20.1°
Drops below altitude 10° 05:19:47 10° 125° (SE) 2,296 5.9 -19.6°
Sets 05:23:03 0° 148° (SSE) 3,216 6.4 -19.0°
